LEMUR-2-AHMED-ASRAR (60576 NORAD) Tracking and Keplerian Element Data

This shows tracking and keplerian element data for the satellite.

Feedback or suggestion? Click here.




ElementValue
Catalog60576
NameLEMUR-2-AHMED-ASRAR
Epoch Orbit844
Epoch Day286.44769474
Epoch Year2024
RAAN1.085
Inclination97.7433
Eccentricity0.0005112
Argument of Perigee291.3494
Mean Anonmoly68.7181
Mean Motion14.94778895
Decay Rate0.00025098
L11 60576U 24149DN 24286.44769474 .00025098 00000+0 23060-2 0 9997
L22 60576 97.7433 1.0850 0005112 291.3494 68.7181 14.94778895 8443



Live tracking and technical data element details for LEMUR-2-AHMED-ASRAR (NORAD 60576). LEMUR-2-AHMED-ASRAR can be tracked NOW for your location showing map with azimuth and elevation plus other details from your city location.







IsCatalogInMostPopularTable: catalog: 60576, numindb: 4
Update: records affected: 1



GetName: 60576 LEMUR-2-AHMED-ASRAR

Hit Count: updated at: Wed, 04 Dec 2024 19:34:09 GMT